Location: Choisy
(48.7685°N, 2.4187°E)
Time: 08:56:47
(UTC+00:00)

ATLAS 3B R/B - Pass Details

Date: 09 December 2023
Orbit: 947 x 1247 km, 63.8° (Epoch: 10 February)

Event Time Altitude Azimuth Distance (km) Brightness Sun altitude
Exits shadow 03:42:00 43° 19° (NNE) 1,606 3.6 -36.6°
Drops below altitude 10° 03:47:03 10° 39° (NE) 3,158 5.6 -35.8°
Sets 03:49:56 0° 43° (NE) 4,153 6.4 -35.3°
